TimeAKST,TemperatureF,Dew PointF,Humidity,Sea Level PressureIn,VisibilityMPH,Wind Direction,Wind SpeedMPH,Gust SpeedMPH,PrecipitationIn,Events,Conditions,WindDirDegrees,DateUTC
12:06 AM,8.6,3.2,79,29.48,1.0,ENE,11.5,-,N/A,Snow,Light Snow,70,2012-12-12 09:06:00
12:13 AM,8.6,3.2,79,29.48,2.0,ENE,10.4,-,N/A,Snow,Light Snow,70,2012-12-12 09:13:00
12:28 AM,8.6,3.2,79,29.47,1.5,East,10.4,-,N/A,Snow,Light Snow,80,2012-12-12 09:28:00
12:52 AM,8.1,3.9,83,29.48,1.2,East,4.6,-,N/A,Snow,Light Snow,90,2012-12-12 09:52:00
1:30 AM,8.6,3.2,79,29.41,1.8,East,6.9,-,N/A,Snow,Light Snow,90,2012-12-12 10:30:00
1:37 AM,8.6,3.2,79,29.41,2.0,East,9.2,-,N/A,Snow,Light Snow,90,2012-12-12 10:37:00
1:52 AM,7.0,3.0,84,29.41,1.2,ENE,6.9,-,N/A,Snow,Light Snow,70,2012-12-12 10:52:00
2:52 AM,7.0,3.0,84,29.37,1.8,ENE,5.8,-,N/A,Snow,Light Snow,60,2012-12-12 11:52:00
3:06 AM,8.6,1.4,73,29.34,3.0,East,10.4,-,N/A,Snow,Light Snow,90,2012-12-12 12:06:00
3:14 AM,8.6,1.4,73,29.33,5.0,ENE,9.2,-,N/A,Snow,Light Snow,70,2012-12-12 12:14:00
3:38 AM,8.6,3.2,79,29.30,2.0,East,11.5,-,N/A,Snow,Light Snow,80,2012-12-12 12:38:00
3:47 AM,8.6,3.2,79,29.31,1.5,East,11.5,20.7,N/A,Snow,Light Snow,90,2012-12-12 12:47:00
3:52 AM,8.1,3.0,80,29.33,1.2,East,11.5,-,N/A,Snow,Light Snow,90,2012-12-12 12:52:00
4:33 AM,8.6,3.2,79,29.27,1.5,East,10.4,-,N/A,Snow,Light Snow,90,2012-12-12 13:33:00
4:52 AM,8.1,3.9,83,29.28,1.5,East,10.4,-,N/A,Snow,Light Snow,80,2012-12-12 13:52:00
5:52 AM,9.0,3.9,80,29.24,1.2,East,8.1,-,N/A,Snow,Light Snow,80,2012-12-12 14:52:00
6:00 AM,8.6,3.2,79,29.21,1.0,East,9.2,-,N/A,Snow,Light Snow,80,2012-12-12 15:00:00
6:15 AM,8.6,3.2,79,29.21,2.0,ENE,6.9,-,N/A,Snow,Light Snow,70,2012-12-12 15:15:00
6:27 AM,8.6,3.2,79,29.21,4.0,East,3.5,-,N/A,Snow,Light Snow,80,2012-12-12 15:27:00
6:38 AM,8.6,1.4,73,29.20,5.0,East,5.8,-,N/A,Snow,Light Snow,90,2012-12-12 15:38:00
6:52 AM,8.1,1.9,76,29.22,6.0,East,8.1,16.1,N/A,Snow,Light Snow,90,2012-12-12 15:52:00
7:29 AM,6.8,1.4,79,29.18,2.0,ENE,11.5,-,N/A,Snow,Light Snow,60,2012-12-12 16:29:00
7:40 AM,5.0,1.4,85,29.17,1.5,ENE,12.7,-,N/A,Snow,Light Snow,60,2012-12-12 16:40:00
7:50 AM,5.0,-0.4,78,29.17,1.2,ENE,13.8,-,N/A,Snow,Light Snow,60,2012-12-12 16:50:00
7:52 AM,5.0,-0.0,80,29.19,1.2,ENE,13.8,-,N/A,Snow,Light Snow,60,2012-12-12 16:52:00
8:52 AM,1.9,-2.9,80,29.19,2.0,NE,9.2,-,N/A,Snow,Light Snow,50,2012-12-12 17:52:00
9:13 AM,1.4,-4.0,78,29.16,4.0,ENE,10.4,-,N/A,Snow,Light Snow,60,2012-12-12 18:13:00
9:52 AM,1.0,-5.1,75,29.18,8.0,Variable,4.6,-,N/A,Snow,Light Snow,0,2012-12-12 18:52:00
10:52 AM,-0.0,-5.1,79,29.18,4.0,Variable,3.5,-,N/A,Snow,Light Snow,0,2012-12-12 19:52:00
11:42 AM,-0.4,-5.8,78,29.15,2.0,Calm,Calm,-,N/A,Snow,Light Snow,0,2012-12-12 20:42:00
11:49 AM,-0.4,-5.8,78,29.14,2.0,Calm,Calm,-,N/A,Snow,Light Snow,0,2012-12-12 20:49:00
11:52 AM,-0.0,-6.0,76,29.17,2.0,Calm,Calm,-,N/A,Snow,Light Snow,0,2012-12-12 20:52:00
12:09 PM,-0.4,-5.8,78,29.15,5.0,Variable,4.6,-,N/A,Snow,Light Snow,0,2012-12-12 21:09:00
12:35 PM,-0.4,-7.6,72,29.15,1.8,NNE,3.5,-,N/A,Snow,Light Snow,30,2012-12-12 21:35:00
12:44 PM,-0.4,-7.6,72,29.15,2.5,NE,5.8,-,N/A,Snow,Light Snow,50,2012-12-12 21:44:00
12:52 PM,-0.9,-8.0,72,29.17,4.0,NE,6.9,-,N/A,Snow,Light Snow,50,2012-12-12 21:52:00
1:00 PM,-0.4,-7.6,72,29.15,1.8,NE,9.2,-,N/A,Snow,Light Snow,50,2012-12-12 22:00:00
1:09 PM,-2.2,-7.6,78,29.15,1.0,NE,4.6,-,N/A,Snow,Light Snow,40,2012-12-12 22:09:00
1:25 PM,-0.4,-7.6,72,29.14,0.8,ENE,9.2,-,N/A,Snow,Light Snow,60,2012-12-12 22:25:00
1:35 PM,-2.2,-7.6,78,29.15,1.0,NE,5.8,-,N/A,Snow,Light Snow,50,2012-12-12 22:35:00
1:47 PM,-2.2,-7.6,78,29.14,4.0,NE,9.2,-,N/A,Snow,Light Snow,40,2012-12-12 22:47:00
1:52 PM,-0.9,-7.1,75,29.16,4.0,NE,9.2,-,N/A,Snow,Light Snow,50,2012-12-12 22:52:00
2:52 PM,-2.0,-7.1,79,29.16,5.0,NE,8.1,-,N/A,Snow,Light Snow,40,2012-12-12 23:52:00
3:09 PM,-2.2,-5.8,85,29.13,2.5,NE,8.1,-,N/A,Snow,Light Snow,50,2012-12-13 00:09:00
3:52 PM,-0.9,-5.1,83,29.14,4.0,NE,8.1,-,N/A,,Overcast,50,2012-12-13 00:52:00
4:52 PM,-0.9,-6.0,79,29.13,6.0,NE,8.1,-,N/A,,Overcast,40,2012-12-13 01:52:00
5:28 PM,-0.4,-5.8,78,29.09,2.5,NE,6.9,-,N/A,Snow,Light Snow,40,2012-12-13 02:28:00
5:35 PM,-0.4,-5.8,78,29.09,3.0,NNE,5.8,-,N/A,Snow,Light Snow,30,2012-12-13 02:35:00
5:41 PM,-0.4,-5.8,78,29.09,1.8,NE,6.9,-,N/A,Snow,Light Snow,50,2012-12-13 02:41:00
5:48 PM,-0.4,-4.0,85,29.09,0.8,Calm,Calm,-,N/A,Snow,Light Snow,0,2012-12-13 02:48:00
5:52 PM,-0.0,-4.0,83,29.11,0.5,Calm,Calm,-,N/A,Fog-Snow,Snow,0,2012-12-13 02:52:00
6:02 PM,-0.4,-5.8,78,29.09,0.5,Calm,Calm,-,N/A,Fog-Snow,Snow,0,2012-12-13 03:02:00
6:25 PM,-0.4,-5.8,78,29.08,1.2,NE,6.9,-,N/A,Snow,Light Snow,50,2012-12-13 03:25:00
6:36 PM,-0.4,-5.8,78,29.09,2.5,NE,4.6,-,N/A,Snow,Light Snow,50,2012-12-13 03:36:00
6:52 PM,-0.9,-6.0,79,29.11,1.5,NE,4.6,-,N/A,Snow,Light Snow,40,2012-12-13 03:52:00
7:07 PM,-0.4,-5.8,78,29.08,3.0,NE,5.8,-,N/A,Snow,Light Snow,40,2012-12-13 04:07:00
7:28 PM,-0.4,-5.8,78,29.08,3.0,NE,4.6,-,N/A,Snow,Light Snow,50,2012-12-13 04:28:00
7:52 PM,-0.9,-6.0,79,29.10,2.0,NE,8.1,-,N/A,Snow,Light Snow,40,2012-12-13 04:52:00
7:58 PM,-0.4,-5.8,78,29.07,1.8,NE,6.9,-,N/A,Snow,Light Snow,40,2012-12-13 04:58:00
8:24 PM,-0.4,-5.8,78,29.07,1.0,NE,6.9,-,N/A,Snow,Light Snow,40,2012-12-13 05:24:00
8:43 PM,-0.4,-5.8,78,29.07,0.8,ENE,3.5,-,N/A,Snow,Light Snow,60,2012-12-13 05:43:00
8:52 PM,-0.0,-5.1,79,29.09,1.2,NNE,5.8,-,N/A,Snow,Light Snow,20,2012-12-13 05:52:00
9:00 PM,-0.4,-5.8,78,29.07,1.8,NNE,3.5,-,N/A,Snow,Light Snow,30,2012-12-13 06:00:00
9:08 PM,-0.4,-5.8,78,29.07,2.0,NE,4.6,-,N/A,Snow,Light Snow,40,2012-12-13 06:08:00
9:16 PM,-0.4,-5.8,78,29.07,1.5,NNE,8.1,-,N/A,Snow,Light Snow,30,2012-12-13 06:16:00
9:29 PM,-0.4,-5.8,78,29.07,1.5,NE,5.8,-,N/A,Snow,Light Snow,40,2012-12-13 06:29:00
9:41 PM,-0.4,-5.8,78,29.07,3.0,NE,5.8,-,N/A,Snow,Light Snow,50,2012-12-13 06:41:00
9:52 PM,-0.0,-5.1,79,29.09,2.5,NE,4.6,-,N/A,Snow,Light Snow,40,2012-12-13 06:52:00
10:03 PM,-0.4,-5.8,78,29.07,1.5,NNE,4.6,-,N/A,Snow,Light Snow,30,2012-12-13 07:03:00
10:41 PM,1.4,-4.0,78,29.06,2.0,Calm,Calm,-,N/A,Snow,Light Snow,0,2012-12-13 07:41:00
10:50 PM,-0.4,-4.0,85,29.07,1.2,Calm,Calm,-,N/A,Snow,Light Snow,0,2012-12-13 07:50:00
10:52 PM,-0.0,-4.0,83,29.09,1.0,NNE,4.6,-,N/A,Snow,Light Snow,30,2012-12-13 07:52:00
11:12 PM,-0.4,-5.8,78,29.07,2.0,NNE,5.8,-,N/A,Snow,Light Snow,20,2012-12-13 08:12:00
11:23 PM,1.4,-5.8,72,29.07,2.0,NNE,8.1,-,N/A,Snow,Light Snow,30,2012-12-13 08:23:00
11:35 PM,-0.4,-5.8,78,29.07,5.0,NNE,8.1,-,N/A,Snow,Light Snow,30,2012-12-13 08:35:00
11:52 PM,1.0,-4.0,79,29.11,3.0,NNE,4.6,-,N/A,Snow,Light Snow,30,2012-12-13 08:52:00